This demonstration page uses our WeatherBlox Daily Observations layout. Learn more.

Left ArrowRight Arrow

38.20091, -84.87328

Hourly Observations for July 13, 2018

Temp ( °F °C ) Dew Point ( °F °C ) Humidity (%) Winds ( mph kmh ) Pressure ( in mb ) Visibility ( mi km ) Precip ( " mm )
12:53 am 00:53 Clear 67 19.4 61 16.1 81 81 Calm 30.12 1020 10 16 0.00 0.00
1:53 am 01:53 Clear 66 18.9 60 15.6 81 81 Calm 30.12 1020 10 16 0.00 0.00
2:53 am 02:53 Clear 65 18.3 60 15.6 84 84 Calm 30.11 1020 10 16 0.00 0.00
3:53 am 03:53 Clear 63 17.2 59 15 87 87 Calm 30.11 1020 10 16 0.00 0.00
4:53 am 04:53 Clear 62 16.7 59 15 90 90 Calm 30.11 1020 10 16 0.00 0.00
5:53 am 05:53 Clear 62 16.7 59 15 90 90 NNW 5 7 30.12 1020 10 16 0.00 0.00
6:53 am 06:53 Sunny 62 16.7 58 14.4 86 86 Calm 30.12 1020 10 16 0.00 0.00
7:53 am 07:53 Sunny 67 19.4 61 16.1 81 81 Calm 30.11 1020 10 16 0.00 0.00
8:53 am 08:53 Sunny 72 22.2 62 16.7 71 71 Calm 30.14 1021 10 16 0.00 0.00
9:53 am 09:53 Sunny 77 25 65 18.3 66 66 E 5 7 30.15 1021 10 16 0.00 0.00
10:53 am 10:53 Sunny 81 27.2 66 18.9 61 61 Calm 30.14 1021 10 16 0.00 0.00
11:53 am 11:53 Sunny 84 28.9 65 18.3 53 53 E 3 6 30.13 1020 10 16 0.00 0.00
12:53 pm 12:53 Mostly Sunny 87 30.6 65 18.3 48 48 NNW 7 11 30.12 1020 10 16 0.00 0.00
1:53 pm 13:53 Sunny 88 31.1 64 17.8 45 45 VRB 7 11 30.11 1020 10 16 0.00 0.00
2:53 pm 14:53 Sunny 88 31.1 65 18.3 46 46 Calm 30.10 1019 10 16 0.00 0.00
3:53 pm 15:53 Sunny 91 32.8 65 18.3 42 42 Calm 30.09 1019 10 16 0.00 0.00
4:53 pm 16:53 Sunny 90 32.2 64 17.8 42 42 VRB 5 7 30.08 1019 10 16 0.00 0.00
5:53 pm 17:53 Sunny 91 32.8 64 17.8 41 41 Calm 30.07 1018 10 16 0.00 0.00
6:53 pm 18:53 Sunny 90 32.2 63 17.2 41 41 ENE 5 7 30.06 1018 10 16 0.00 0.00
7:53 pm 19:53 Sunny 88 31.1 64 17.8 45 45 N 5 7 30.05 1018 10 16 0.00 0.00
8:53 pm 20:53 Sunny 82 27.8 66 18.9 58 58 Calm 30.06 1018 10 16 0.00 0.00
9:53 pm 21:53 Clear 77 25 68 20 74 74 Calm 30.06 1018 10 16 0.00 0.00
10:53 pm 22:53 Clear 74 23.3 67 19.4 79 79 Calm 30.08 1019 10 16 0.00 0.00
11:53 pm 23:53 Clear 73 22.8 66 18.9 79 79 Calm 30.09 1019 10 16 0.00 0.00

Powered by AerisWeather